Вернуться в каталог

THOR ABLESTAR R/B

АктивенLEO
NORAD 47·ROCKET BODY·🇺🇸 United States

Запущен Jun 22, 1960 с Cape Canaveral Space Force Station

Loading…

Ближайшие Пролёты (ближайшие 24 часа)

TLE

СвежийSource: Space-Track

Эпоха: Sep 14, 2026, 03:59 UTC

1 00047U 60007C   26257.16614140  .00000374  00000-0  10478-3 0  9996
2 00047  66.6648 167.4327 0210834  71.8208 290.5726 14.45386314463668

Отслеживайте THOR ABLESTAR R/B в реальном времени с AllMySat

Download on the App Store